RH
90 80 79 74 75 79 78 81 83 84 85 85 85 85 84 84 84 83 82 82 81 79 78 78 77 73 71 71 71 70 72 72 71 71 70 70 70 68 68 64 62 60 74
65 66 79 77 74 78 82 83 84 84 85 84 84 83 82 83 83 82 80 79 79 77 76 75 74 72 71 70 70 69 68 65 69 68 67 67 65 69 68 67 67 66 72
54 59 64 79 77 77 81 82 83 82 82 82 82 81 81 81 80 79 78 76 76 74 72 72 72 71 72 70 69 69 67 65 63 61 68 70 64 69 70 69 72 72 72
46 49 57 82 79 79 81 81 79 78 78 80 79 79 79 80 78 76 73 72 72 72 70 70 70 70 71 71 70 68 65 64 64 62 72 65 48 70 72 73 73 71 73
45 51 65 81 80 79 79 80 78 78 77 78 78 77 77 77 75 72 71 70 70 70 69 69 69 69 69 70 68 68 65 63 67 65 64 69 62 67 72 73 71 72 72
44 50 71 78 77 78 79 78 78 78 77 77 76 75 76 73 69 71 70 67 66 67 68 69 69 69 69 70 69 67 66 64 65 70 68 66 65 71 72 70 71 70 73
44 51 59 78 78 79 80 80 78 77 76 76 75 74 71 69 68 69 66 64 65 66 67 68 66 67 67 67 68 66 66 65 69 78 68 70 72 76 70 73 72 73 74
41 44 57 75 78 79 79 78 79 76 75 75 73 72 70 67 67 66 62 62 63 65 67 67 65 66 66 64 66 68 68 67 69 80 82 80 78 75 70 68 72 74 73
36 47 57 60 70 76 80 77 76 75 76 74 72 71 69 67 66 65 63 61 64 64 65 66 63 64 65 65 68 68 72 75 78 96 76 83 81 74 71 68 68 75 70
39 44 55 61 62 69 68 75 74 74 72 71 71 69 68 68 67 67 67 69 64 63 64 64 64 64 65 67 68 68 72 71 81 80 86 72 81 73 71 74 74 73 72
42 44 46 49 63 70 68 67 73 72 69 69 68 70 72 63 62 64 70 68 66 65 63 65 67 69 70 71 75 77 72 59 83 86 86 84 80 74 71 72 74 74 75
45 43 47 55 56 60 47 74 73 62 56 61 60 70 67 92 71 56 64 65 69 71 62 68 72 69 72 60 66 68 57 50 62 79 87 74 78 72 72 74 75 75 75
43 40 47 53 60 53 68 65 59 55 55 57 68 69 65 72 64 89 89 95 90 79 85 68 71 74 65 55 53 51 49 48 51 61 73 82 79 73 71 74 75 76 74
44 47 48 51 66 71 61 53 53 50 52 50 57 69 72 66 69 81 96 90 90 85 97 80 74 63 61 68 60 52 49 44 42 55 76 80 78 70 71 74 74 76 75
39 44 50 58 74 75 71 60 58 58 49 52 63 65 60 68 79 88 75 69 80 83 64 72 73 71 72 66 63 58 47 51 47 48 77 80 78 72 74 73 74 75 76
37 44 51 58 68 76 73 74 73 63 61 58 54 65 69 69 79 70 71 71 72 75 70 73 75 74 73 67 64 50 47 48 50 51 53 76 80 78 78 76 76 76 76
36 40 50 53 57 66 71 69 68 66 48 53 58 70 70 74 73 76 76 80 79 75 70 80 74 82 71 63 59 49 50 49 54 51 52 52 72 80 80 81 79 80 79
37 47 49 36 53 61 67 72 63 57 67 68 60 63 66 69 72 77 79 89 83 77 83 83 77 75 72 63 60 57 54 51 50 53 51 49 59 56 78 80 79 78 77
41 51 52 51 54 64 72 66 67 68 73 71 68 70 71 77 74 79 72 82 78 78 74 76 75 83 73 64 51 53 53 54 52 39 49 51 51 57 62 78 80 80 73
41 51 55 52 63 70 71 77 68 57 70 69 71 69 82 79 73 83 72 74 76 76 74 81 79 70 69 68 44 47 58 58 56 57 48 40 48 50 65 65 80 76 79
41 52 59 62 71 68 70 67 66 69 68 61 65 69 74 70 73 76 75 77 77 80 72 72 69 72 70 69 69 67 67 58 58 55 50 51 50 48 54 62 67 86 87
42 52 64 66 74 72 69 74 70 68 66 64 62 76 72 71 78 75 83 84 80 79 78 75 72 76 72 72 71 75 71 67 55 44 53 49 49 50 53 54 67 69 82
44 55 63 70 73 74 73 74 81 87 75 73 65 71 69 73 75 82 78 80 80 71 74 78 74 71 76 76 66 74 78 77 72 64 60 57 54 58 58 60 58 60 60
42 49 62 70 74 74 75 75 79 68 73 63 70 65 67 70 70 72 76 79 80 77 82 78 70 75 78 77 76 62 68 70 76 72 67 61 58 53 59 57 57 58 55
38 46 56 71 76 75 78 77 74 74 62 62 61 70 79 82 73 71 77 78 78 73 79 74 75 78 79 79 75 74 75 75 72 70 71 69 66 59 63 63 55 55 60
35 44 51 72 78 76 78 79 81 77 72 64 64 69 67 69 67 71 70 79 78 74 80 76 75 73 76 80 79 79 73 70 70 71 74 68 64 65 59 55 62 63 56
Wind_Speed
7 10 13 17 18 16 18 17 16 16 15 16 16 16 16 15 14 14 14 12 12 11 12 12 13 13 13 12 10 10 9 6 8 9 9 8 10 11 9 7 4 12 13
15 14 13 16 17 15 16 16 15 14 16 15 15 15 14 14 14 13 12 11 11 11 11 11 12 12 12 11 10 8 6 2 6 7 8 9 10 13 11 11 11 12 13
18 15 15 15 16 15 14 15 15 14 14 13 14 14 13 13 13 12 11 10 10 9 10 12 11 11 11 10 8 7 4 3 1 5 6 1 8 14 13 13 16 14 13
18 16 16 15 14 14 13 14 13 13 13 12 13 11 11 12 12 11 10 9 8 8 9 10 10 9 9 8 6 5 3 3 5 1 5 6 11 14 15 15 14 14 14
16 17 14 15 14 14 13 13 12 12 11 11 11 10 10 11 10 10 9 7 6 7 8 8 9 8 8 7 6 4 1 3 6 8 3 5 7 12 14 14 13 12 12
19 18 14 15 14 13 13 13 12 11 11 10 9 9 10 10 9 9 7 5 5 6 7 8 8 8 7 6 5 3 3 3 4 3 3 9 8 14 13 13 14 13 13
16 16 15 14 13 13 13 13 12 11 11 10 9 9 9 8 7 6 5 4 5 5 6 6 6 6 5 3 4 4 3 4 2 4 4 9 8 12 14 14 14 13 12
17 16 14 13 13 13 14 13 11 11 11 9 8 8 7 6 5 5 3 3 3 5 5 6 5 4 3 1 3 7 4 5 7 3 1 8 11 12 14 13 13 13 12
18 17 13 13 12 14 13 13 11 11 9 8 8 7 5 5 6 6 5 3 3 4 5 4 2 2 1 3 6 6 7 10 2 6 7 6 11 11 14 13 12 11 11
18 17 14 13 13 12 12 12 10 8 8 7 7 6 6 7 8 7 7 6 3 0 2 1 3 3 4 6 9 8 7 9 9 7 7 8 12 12 12 13 12 11 10
12 14 15 15 13 12 10 10 9 8 7 6 6 8 8 6 6 6 6 7 7 7 1 5 7 5 6 9 12 14 7 1 11 6 3 8 11 12 12 12 11 11 11
11 17 11 13 13 13 12 10 8 8 7 6 7 7 6 4 6 6 4 4 6 6 2 10 6 7 8 7 4 7 6 4 7 6 7 10 10 12 11 12 12 11 11
15 7 14 11 11 11 12 8 6 6 6 6 7 7 3 4 2 8 2 4 6 5 8 1 3 5 9 5 5 6 6 5 6 5 7 9 11 12 11 12 10 13 13
17 15 15 13 8 3 7 8 9 8 7 7 8 6 1 3 4 6 2 6 5 6 7 3 5 1 2 6 4 4 5 6 4 5 7 11 11 10 12 13 13 12 12
18 16 16 13 9 6 6 4 3 5 4 6 7 8 4 2 4 7 4 0 2 3 4 2 3 4 4 1 4 4 5 5 3 2 4 12 11 10 10 11 12 14 14
16 17 18 16 11 7 5 3 0 0 2 4 3 7 5 1 2 3 0 2 3 2 2 2 3 4 4 5 4 1 2 5 2 2 2 5 10 11 12 12 11 11 13
13 14 19 15 13 9 5 5 3 3 4 7 2 11 8 5 3 3 3 3 1 3 2 4 2 3 5 6 5 3 3 4 5 2 3 1 7 10 12 13 12 12 12
14 12 13 14 16 12 9 4 3 5 3 3 2 3 5 4 4 1 4 3 4 4 2 1 2 1 4 4 3 2 2 2 2 4 1 2 3 7 8 9 11 12 12
12 12 10 10 15 17 10 6 7 7 3 3 1 2 7 5 5 4 4 3 4 2 0 2 4 3 3 4 5 1 1 2 4 4 3 6 4 3 7 8 11 10 11
14 13 12 9 7 13 11 8 8 6 4 2 2 5 7 6 7 5 4 1 2 1 2 3 2 2 3 4 4 5 2 3 3 1 2 6 2 2 6 5 4 4 7
16 15 14 12 8 8 9 8 5 4 5 7 6 6 8 5 4 2 3 2 3 1 4 2 1 4 4 2 2 4 4 4 4 3 5 5 6 5 7 5 5 3 4
16 16 15 14 10 7 6 6 5 6 5 6 5 7 8 8 6 6 5 5 7 3 5 5 2 3 4 3 1 3 1 2 2 4 4 5 2 5 6 5 6 5 4
18 18 16 15 13 11 9 7 5 5 3 4 5 6 7 9 7 7 6 3 4 2 4 4 3 1 3 2 3 1 4 1 1 2 4 4 2 4 2 3 5 5 2
18 17 16 16 15 13 13 11 11 9 6 5 5 6 7 7 6 6 6 6 5 3 5 5 3 2 2 2 2 2 3 1 2 2 2 4 5 6 3 1 3 5 2
18 18 18 18 16 16 14 12 10 8 7 6 4 4 11 8 9 9 8 7 6 2 4 4 4 3 2 3 3 2 2 3 2 1 1 2 2 4 5 5 4 3 6
18 19 18 19 17 16 16 15 11 13 10 8 7 7 7 8 6 5 8 7 6 4 6 4 3 1 1 2 3 5 2 0 2 3 2 3 2 2 3 4 5 4 4
Wind_Direction
126 131 133 124 119 112 114 117 110 104 100 93 91 91 91 92 93 93 90 92 90 85 84 79 76 72 71 74 80 87 91 109 107 98 97 93 93 84 85 84 129 104 103
131 123 124 123 122 115 110 112 111 107 99 97 96 94 95 96 94 92 92 92 91 85 82 77 72 71 72 72 78 83 97 139 120 125 114 103 93 90 83 58 141 107 102
127 125 121 121 124 118 116 115 110 108 107 105 98 93 95 95 92 92 91 88 83 82 77 74 69 64 64 66 74 82 80 300 176 140 105 295 96 102 89 94 105 109 104
138 124 124 123 121 121 121 118 119 118 112 108 100 98 97 93 90 91 91 85 78 73 69 67 61 53 54 57 60 78 91 300 308 294 182 192 98 107 103 102 108 113 111
132 113 122 122 120 124 129 127 122 125 123 115 108 107 102 95 93 93 91 83 78 69 62 55 49 45 39 44 44 42 37 307 336 315 71 118 106 115 115 117 113 118 124
128 121 130 128 128 127 130 130 133 136 132 125 122 115 105 99 97 97 96 88 72 59 50 43 37 35 34 20 24 16 352 325 298 358 31 103 97 124 124 115 112 119 117
124 131 132 137 135 132 135 137 138 138 138 140 131 120 109 101 107 110 103 83 63 48 35 27 27 35 35 23 350 321 315 288 18 273 124 105 120 127 123 121 123 125 126
136 137 138 137 137 141 141 135 138 137 144 143 135 126 124 124 131 137 115 78 55 35 17 15 20 29 33 357 296 294 297 281 124 87 316 105 133 136 131 132 130 133 132
140 133 136 140 145 147 146 145 138 140 138 143 144 145 156 173 179 180 147 112 57 35 26 17 8 351 307 252 251 274 297 297 21 88 206 119 137 141 140 138 141 145 142
137 138 148 146 155 157 157 154 143 140 145 154 164 181 203 215 217 204 170 155 133 103 353 325 256 244 241 264 264 259 264 290 68 56 314 119 146 154 147 151 150 150 158
148 138 152 147 153 154 150 163 160 165 167 173 186 211 221 235 195 170 185 157 187 175 229 269 262 277 300 268 270 276 262 247 112 146 157 141 162 151 154 152 158 160 165
156 165 158 141 152 171 161 149 180 180 189 196 194 187 209 132 257 203 104 236 238 97 60 289 304 318 284 262 266 279 251 14 117 160 132 178 174 159 162 166 165 165 179
182 155 136 149 146 187 129 165 184 185 193 198 205 190 231 170 127 108 343 266 44 89 279 42 233 230 260 2 344 353 9 345 104 130 152 168 163 168 177 173 179 175 178
156 143 148 147 168 177 154 175 195 183 191 193 192 176 287 271 82 75 216 196 179 187 231 185 214 309 351 53 13 294 348 5 354 116 158 167 163 165 169 176 182 189 189
150 159 163 156 169 179 197 212 212 174 204 207 146 170 200 244 130 155 220 114 199 287 53 20 17 44 8 219 226 294 23 295 35 347 152 165 157 153 178 183 191 191 192
166 158 155 164 159 166 205 255 235 18 43 330 116 159 173 134 18 351 16 328 301 78 73 52 29 344 322 308 266 245 295 278 43 97 32 174 172 167 179 187 189 200 200
165 161 152 157 162 167 227 176 254 196 187 225 292 143 169 180 191 31 303 237 175 173 98 74 331 9 311 302 245 48 274 38 76 36 272 178 180 180 185 188 191 188 200
167 164 162 179 163 174 202 161 212 254 235 299 264 141 156 147 121 284 276 69 307 71 240 156 223 261 291 284 307 250 337 273 126 236 198 340 140 180 192 184 189 198 204
172 161 172 188 169 171 171 174 224 224 197 200 103 147 149 117 189 224 274 153 215 89 182 45 3 345 323 349 314 318 230 57 334 135 65 106 10 344 142 186 200 210 211
174 167 172 200 185 164 162 184 214 206 182 279 182 194 152 200 173 186 254 85 18 313 24 96 223 321 283 261 306 336 330 64 353 128 163 100 89 0 129 154 206 192 198
174 172 179 190 187 163 164 183 201 238 181 194 206 216 140 141 172 149 273 289 218 246 126 154 19 335 278 42 358 279 221 170 230 65 68 44 355 76 63 13 70 92 99
184 180 179 186 188 181 171 165 196 229 206 201 204 161 160 176 179 176 213 250 185 170 177 95 74 314 309 116 342 334 154 270 149 120 108 106 355 39 67 64 76 59 145
184 180 182 183 185 179 174 167 210 259 244 217 204 154 177 164 178 197 164 245 108 18 90 137 173 197 317 290 103 355 350 41 318 129 148 110 199 98 71 149 119 113 28
187 183 177 178 182 180 190 185 197 206 218 206 186 185 185 161 166 160 184 195 110 40 125 143 163 92 277 331 245 151 101 72 355 25 261 157 159 141 149 342 135 137 158
188 181 179 179 184 185 185 206 189 201 208 247 222 190 140 164 186 182 173 131 123 202 145 113 120 144 316 294 336 173 186 193 164 244 12 268 297 166 166 190 136 179 177
192 181 183 177 185 187 185 195 208 190 218 218 210 146 161 166 175 176 141 136 154 199 144 154 137 168 145 331 356 323 311 253 169 215 244 347 332 329 231 159 170 200 147